Flag for Germany Past Weather in Menden (Sauerland), North Rhine-Westphalia, Germany — Yesterday and Last 2 Weeks

Now
66 °F

Partly sunny.


Feels Like: 66 °F
Forecast: 56 / 68 °F
Wind: 6 mph from South

Location: Dortmund / Wickede

Current Time: May 31, 2016 at 2:10:19 PM

Latest Report: May 31, 2016 at 1:20 PM


Visibility: N/A

Pressure: 29.83 "Hg

Humidity: 52%

Dew Point: 48 °F

Location of Menden (Sauerland)Location

Past Weather in Menden (Sauerland) — Graph

°F

Menden (Sauerland) Temperature Yesterday

Maximum temperature yesterday: 70 °F (at 5:50 PM)
Minimum temperature yesterday: 59 °F (at 5:20 AM)
Average temperature yesterday: 63 °F

High & Low Weather Summary for the Past Weeks

 TemperatureHumidityPressure
High73 °F (May 21, 5:50 PM)100% (May 30, 11:20 AM)30.12 "Hg (May 30, 11:20 AM)
Low45 °F (May 17, 5:50 AM)37% (May 18, 1:50 PM)29.59 "Hg (May 30, 3:50 PM)
Average59 °F68%29.91 "Hg
* Reported May 16 12:20 PM — May 31 12:20 PM, Menden (Sauerland), Weather by CustomWeather, © 2016

Note: Actual official high and low records may vary slightly from our data, if they occured in-between our weather recording intervals... More about our weather records

Advertising

Menden (Sauerland) Weather History for the Previous 24 Hours

Scroll right to see more
 ConditionsComfort  
Time TempWeatherWind HumidityBarometerVisibility
12:20 PM
Tue, May 31
68 °FScattered clouds.9 mph53%29.83 "HgN/A
11:50 AM66 °FScattered clouds.10 mph52%29.83 "HgN/A
11:20 AM63 °FScattered clouds.10 mph59%29.80 "HgN/A
10:50 AM64 °FScattered clouds.12 mph60%29.80 "HgN/A
9:20 AM64 °FScattered clouds.10 mph60%29.80 "HgN/A
8:50 AM61 °FScattered clouds.10 mph63%29.77 "HgN/A
8:20 AM61 °FScattered clouds.9 mph68%29.77 "HgN/A
7:50 AM61 °FScattered clouds.7 mph68%29.77 "HgN/A
7:20 AM61 °FScattered clouds.7 mph68%29.74 "HgN/A
6:50 AM59 °FScattered clouds.7 mph68%29.74 "HgN/A
6:20 AM59 °FPartly sunny.10 mph68%29.74 "HgN/A
5:50 AM59 °FPassing clouds.8 mph72%29.74 "HgN/A
5:20 AM59 °FPassing clouds.8 mph72%29.74 "HgN/A
9:50 PM
Mon, May 30
63 °FSunny.3 mph73%29.65 "Hg10 mi
9:20 PM64 °FScattered clouds.9 mph68%29.62 "HgN/A
8:50 PM64 °FPassing clouds.6 mph68%29.62 "HgN/A
8:20 PM66 °FPartly sunny.7 mph68%29.62 "HgN/A
7:50 PM68 °FPassing clouds.10 mph64%29.59 "HgN/A
7:20 PM68 °FSunny.9 mph69%29.59 "Hg10 mi
6:50 PM70 °FSunny.12 mph69%29.59 "Hg10 mi
6:20 PM68 °FBroken clouds.5 mph83%29.59 "HgN/A
5:50 PM70 °FScattered showers. Broken clouds.5 mph83%29.59 "HgN/A
5:20 PM68 °FPartly sunny.3 mph83%29.59 "HgN/A
4:50 PM68 °FPartly sunny.5 mph88%29.59 "Hg6 mi
4:20 PM66 °FFog.6 mph94%29.59 "Hg2 mi
3:50 PM64 °FSprinkles. Fog.2 mph94%29.59 "Hg1 mi
3:20 PM64 °FThundershowers. Partly sunny.6 mph94%29.62 "Hg1 mi
2:50 PM64 °FLight rain. Fog.2 mph94%29.62 "Hg1 mi
2:20 PM64 °FFog.2 mph94%29.62 "Hg1 mi
Weather by CustomWeather, © 2016

See weather overviewHow to use our weather pages